This demonstration page uses our WeatherBlox Daily Observations layout. Learn more.

Left ArrowRight Arrow

41.55636, -103.73856

Hourly Observations for August 25, 2021

Temp ( °F °C ) Dew Point ( °F °C ) Humidity (%) Winds ( mph kmh ) Pressure ( in mb ) Visibility ( mi km ) Precip ( " mm )
12:58 am 00:58 Clear 64 17.5 53 11.5 68 68 ENE 12 19 30.01 1016 10 16 0.00 0.00
1:58 am 01:58 Clear 62 16.6 52 10.9 69 69 ENE 10 17 30.05 1018 10 16 0.00 0.00
2:58 am 02:58 Partly Cloudy 60 15.3 48 9.1 67 67 ENE 12 19 30.07 1018 10 16 0.00 0.00
3:58 am 03:58 Mostly Clear 56 13.5 47 8.2 71 71 NE 8 13 30.11 1020 10 16 0.00 0.00
4:58 am 04:58 Mostly Cloudy 57 13.7 47 8.2 70 70 NE 5 7 30.14 1021 10 16 0.00 0.00
5:58 am 05:58 Mostly Cloudy 55 12.8 46 8 73 73 Calm 30.14 1021 10 16 0.00 0.00
6:58 am 06:58 Mostly Cloudy with Rain 56 13.2 50 9.8 80 80 E 10 17 30.17 1022 10 16 0.04 1.02
7:58 am 07:58 Cloudy with Light Showers 55 13 50 9.8 81 81 WNW 5 7 30.20 1023 10 16 0.01 0.25
8:58 am 08:58 Cloudy 57 14.1 47 8.5 69 69 N 5 7 30.21 1023 10 16 0.00 0.00
9:58 am 09:58 Cloudy 59 15 48 8.8 67 67 Calm 30.21 1023 10 16 0.00 0.00
10:58 am 10:58 Mostly Cloudy 62 16.9 51 10.6 67 67 E 3 6 30.20 1023 10 16 0.00 0.00
11:58 am 11:58 Partly Cloudy 69 20.5 54 12.1 59 59 SE 6 9 30.16 1021 10 16 0.00 0.00
12:58 pm 12:58 Sunny 75 23.9 55 12.7 50 50 SSE 9 15 30.11 1020 10 16 0.00 0.00
1:58 pm 13:58 Sunny 79 26.2 54 12.3 42 42 ESE 10 17 30.09 1019 10 16 0.00 0.00
2:58 pm 14:58 Sunny 81 27.4 54 12.4 39 39 ESE 13 20 30.06 1018 10 16 0.00 0.00
3:58 pm 15:58 Sunny 83 28.5 53 11.9 36 36 ESE 10 17 30.03 1017 10 16 0.00 0.00
4:58 pm 16:58 Sunny 84 28.9 52 11.3 34 34 SSE 16 26 30.01 1016 10 16 0.00 0.00
5:58 pm 17:58 Sunny 82 28 53 11.8 37 37 SE 17 28 29.99 1016 10 16 0.00 0.00
6:58 pm 18:58 Sunny 78 25.8 58 14.7 50 50 SSE 13 20 29.99 1016 10 16 0.00 0.00
7:58 pm 19:58 Clear 72 22.2 60 15.7 67 67 SE 13 20 30.03 1017 10 16 0.00 0.00
8:58 pm 20:58 Clear 69 20.7 59 14.9 70 70 SSE 13 20 30.05 1018 10 16 0.00 0.00
9:58 pm 21:58 Clear 67 19.2 60 15.5 79 79 S 14 22 30.06 1018 10 16 0.00 0.00
10:58 pm 22:58 Clear 66 18.7 61 15.9 84 84 SSE 16 26 30.07 1018 10 16 0.00 0.00
11:58 pm 23:58 Clear 66 19.1 61 16.2 83 83 SSE 13 20 30.04 1017 10 16 0.00 0.00

Powered by AerisWeather